SCP
0 0 0 0 0 0 0 0 0 0 0 0 0 0 0 0 0 0 0 0 0 0 0 0 0 0 0 0 0 0 0 0 0 -0 0 0 0 0 0 0 0 0 0 0
0 0 0 0 0 0 0 0 0 0 0 0 0 0 0 0 0 0 0 0 0 0 0 0 0 0 0 0 0 0 0 0 0 0 0 0 0 0 0 0 0 0 0 0
0 0 0 0 0 0 0 0 0 0 0 0 0 0 0 0 0 0 0 0 0 0 0 0 0 0 0 0 0 0 0 0 0 0 0 0 0 0 -0 0 0 0 0 0
0 0 0 0 0 0 0 0 0 0 0 0 0 0 0 0 0 0 0 0 0 0 0 0 0 0 0 0 0 0 0 0 0 0 0 0 0 0 0 0 0 0 0 0
0 0 0 0 0 0 0 0 0 0 0 0 0 0 0 0 0 0 0 0 0 0 0 0 0 0 0 0 0 0 0 0 0 0 0 0 0 0 0 0 0 0 0 0
0 0 0 0 0 0 0 0 0 0 0 0 0 0 0 0 0 0 0 0 0 0 0 0 0 0 0 0 0 0 0 0 0 0 0 0 0 0 0 0 0 0 0 0
0 0 0 0 0 0 0 0 0 0 0 0 0 0 0 0 0 0 0 0 0 0 0 0 0 0 0 0 0 0 0 0 0 0 0 0 0 0 0 0 0 0 0 0
0 0 0 0 0 0 0 0 0 0 0 0 0 0 0 0 0 0 0 0 0 0 0 0 0 0 0 0 0 0 0 0 0 0 0 0 0 0 0 0 0 0 0 0
0 0 0 0 0 0 0 0 0 0 0 0 0 0 0 0 0 0 0 0 0 0 0 0 0 0 0 0 0 0 0 0 0 0 0 0 0 0 0 0 0 0 0 0
0 0 0 0 0 0 0 0 0 0 0 0 0 0 0 0 0 0 0 0 0 0 0 0 0 0 0 0 0 0 0 0 0 0 0 0 0 0 0 0 1 0 0 0
0 0 0 0 0 0 0 0 0 0 0 0 0 0 0 0 0 0 0 0 0 0 0 0 0 0 0 0 0 0 0 0 0 0 0 0 0 0 0 0 0 0 0 0
0 0 0 0 0 0 0 0 0 0 0 0 0 0 0 0 0 0 0 0 0 0 0 0 0 0 0 0 0 0 0 0 0 0 0 0 0 0 0 0 0 0 0 0
0 0 0 0 0 0 0 0 0 0 0 0 0 0 0 0 0 0 0 0 0 0 0 0 0 0 0 0 0 0 0 0 0 0 0 0 0 0 0 0 0 0 0 0
0 0 0 0 0 0 0 0 0 0 0 0 0 0 0 0 0 0 0 0 0 0 0 0 0 0 0 0 0 0 0 0 0 0 0 0 0 0 0 0 0 0 0 0
0 0 0 0 0 0 0 0 0 0 0 0 0 0 0 0 0 0 0 0 0 0 0 0 0 0 0 0 0 0 0 0 0 0 0 0 0 0 0 0 0 0 0 0
0 0 0 0 0 0 0 0 0 0 0 0 0 0 0 0 0 0 0 0 0 0 0 0 0 0 0 0 0 0 0 0 0 0 0 0 0 0 0 0 0 0 0 0
0 0 0 0 0 0 0 0 0 0 0 0 0 0 0 0 0 0 0 0 0 0 0 0 0 0 0 0 0 0 -0 0 0 0 0 0 0 0 0 0 0 0 0 0
0 0 0 0 0 0 0 0 0 0 0 0 0 0 0 0 0 0 0 0 0 0 0 0 0 0 0 0 0 0 0 0 0 0 0 0 0 0 0 0 0 -0 0 0
0 0 0 0 0 0 0 0 0 0 0 0 0 0 0 0 0 0 0 0 0 0 0 0 0 0 0 0 0 0 0 0 0 0 0 0 0 0 0 0 0 -0 -0 0
0 0 0 0 0 0 0 0 0 0 0 0 0 0 0 0 0 0 0 0 0 0 0 0 0 0 0 0 0 0 0 -0 0 0 0 0 0 0 -0 0 0 0 0 0
0 0 0 0 -0 0 0 0 0 0 0 0 0 0 0 0 0 0 0 0 0 0 0 0 0 0 0 -0 0 0 0 0 0 0 0 0 -0 -0 -0 0 0 0 0 0
0 0 0 0 0 0 0 0 0 0 0 0 0 0 0 0 0 0 0 0 0 0 0 0 0 0 0 0 0 0 0 0 0 0 0 -0 -0 0 0 0 0 0 0 0
0 0 0 0 0 0 0 0 0 0 0 0 0 0 0 0 0 0 0 0 0 0 0 0 0 0 0 0 0 0 -0 0 0 -0 0 -0 -0 -0 0 0 0 0 0 -0
0 0 0 0 0 0 0 0 0 0 0 0 0 0 0 0 0 0 0 0 0 0 -0 -0 0 0 0 0 0 -0 -0 -0 -0 -0 0 -0 0 0 0 0 0 0 0 0
0 0 0 0 0 0 0 0 0 0 0 0 0 0 0 0 0 0 0 0 0 -0 0 -0 -0 0 0 0 -0 -0 -0 -0 -0 0 0 -0 0 -0 -0 0 0 0 0 0
0 0 0 0 0 0 0 0 -0 0 0 0 0 0 0 0 0 0 0 0 0 0 0 0 0 0 0 -0 -0 -0 0 -0 -0 -0 -0 0 -0 -0 -0 0 0 0 0 0
0 0 0 0 0 0 0 0 0 0 0 0 0 0 0 0 0 0 0 0 0 0 0 0 0 -0 -0 -0 -0 0 -0 0 0 -0 -0 0 0 -0 -0 -0 0 0 0 0
Wind_Speed_500mb
28 25 22 18 10 6 2 5 11 5 15 16 26 22 14 7 12 10 13 12 22 16 11 20 18 9 3 6 15 17 7 10 24 34 29 29 28 31 22 21 22 23 27 28
27 23 18 13 7 14 5 10 6 5 13 12 19 18 11 10 13 15 7 12 13 13 22 13 25 11 15 7 8 8 10 14 19 32 31 32 24 30 26 28 26 33 26 25
33 25 19 12 8 12 16 9 9 13 21 29 18 18 19 23 13 22 14 16 10 17 21 22 15 13 11 8 5 7 8 18 24 26 32 19 21 24 31 22 23 27 30 36
34 28 23 15 11 14 18 12 7 9 10 22 24 22 12 22 23 19 14 15 25 23 21 25 29 27 22 21 12 19 8 27 32 39 44 37 36 34 34 31 29 30 32 40
38 33 27 19 14 16 14 9 10 6 20 9 13 16 22 27 20 19 19 22 17 18 25 25 20 20 20 18 20 11 12 21 29 42 41 40 50 47 43 44 42 45 43 42
39 36 32 23 17 23 12 13 11 10 6 16 19 20 26 20 24 14 23 10 20 18 11 9 14 14 23 25 15 17 22 21 24 40 40 43 54 43 49 48 47 47 42 43
47 40 36 29 23 26 13 12 11 16 17 17 18 14 16 21 22 25 18 16 23 5 3 8 22 29 34 37 36 35 27 24 23 30 32 48 29 34 38 43 39 31 35 32
52 45 39 32 28 28 21 15 14 17 17 28 21 15 18 21 13 21 23 15 4 5 6 13 21 23 31 39 41 39 39 28 22 27 30 41 42 34 26 25 25 16 21 18
58 50 42 33 28 26 28 17 18 13 16 15 20 16 28 19 18 19 17 1 4 8 18 18 24 17 17 11 11 14 35 33 26 28 33 36 28 22 24 35 35 12 16 15
60 52 44 36 30 27 28 14 27 15 24 16 7 12 14 23 24 15 16 21 14 17 17 20 23 25 25 25 32 13 21 25 32 27 28 25 20 28 23 20 8 16 19 19
64 54 46 37 29 29 31 15 17 17 20 12 9 13 16 7 16 15 14 6 19 17 18 18 17 21 24 28 36 32 22 19 23 26 34 43 27 21 20 14 13 20 27 19
68 57 47 38 32 32 36 11 12 18 13 8 7 17 21 19 11 18 17 10 8 11 9 12 11 21 15 26 29 29 35 33 23 25 19 6 1 15 3 13 24 35 25 27
69 57 47 39 34 38 29 10 16 12 18 27 30 25 23 28 27 18 13 26 14 9 8 11 9 13 17 22 27 32 40 30 29 30 31 43 44 34 33 30 35 37 35 40
69 54 46 39 38 38 31 12 13 17 7 12 11 11 18 20 28 32 32 19 6 12 15 25 16 19 23 23 31 32 32 33 28 36 36 48 58 55 55 42 32 44 53 54
64 52 44 40 39 38 27 13 15 15 7 8 2 5 13 15 15 25 31 29 28 26 27 23 21 38 30 40 32 29 39 37 30 33 50 52 55 51 54 56 53 56 59 64
61 53 47 42 42 40 23 10 14 16 14 6 5 8 11 14 18 25 20 25 29 33 33 23 25 42 34 17 27 42 48 56 62 63 58 59 60 61 60 63 64 62 63 62
62 53 45 39 39 31 16 3 14 23 16 4 7 11 17 8 11 17 22 24 17 24 31 40 42 44 42 28 38 57 66 61 57 56 58 68 67 66 60 61 64 64 65 63
58 48 42 41 42 21 15 5 13 26 9 8 6 4 16 15 10 11 15 16 15 15 26 24 37 47 47 26 47 57 63 61 61 62 59 63 64 65 63 64 65 64 64 61
58 52 49 44 20 15 11 10 24 13 6 3 6 9 6 20 9 4 11 13 10 21 24 33 27 22 18 26 43 48 47 47 51 55 57 61 66 70 71 71 72 71 70 65
63 58 20 14 17 21 22 11 8 10 11 12 15 19 8 20 16 12 4 12 11 16 22 33 26 31 69 73 73 72 68 64 59 60 57 59 60 60 58 56 55 55 65 68
48 17 9 26 28 20 8 8 11 14 9 17 19 25 14 16 13 7 19 6 7 8 3 7 9 23 30 31 39 34 36 42 50 49 54 57 66 68 65 64 64 68 66 61
26 23 36 31 9 5 7 9 8 10 9 21 20 16 23 14 9 14 10 7 8 12 11 7 10 7 10 17 23 29 33 36 38 44 54 62 70 70 68 68 70 69 62 65
45 18 13 12 8 7 12 16 10 9 13 13 19 20 16 10 18 15 8 8 12 7 7 9 20 2 9 16 23 28 33 33 40 47 54 61 78 64 61 57 59 50 69 47
10 10 9 11 10 11 11 13 9 10 12 16 16 17 11 14 13 12 9 10 7 7 10 25 11 14 17 23 28 34 37 34 42 51 59 61 38 29 27 29 31 29 51 66
7 7 7 14 18 12 9 4 4 10 10 11 10 9 10 11 8 7 8 7 11 12 14 8 10 21 25 25 30 35 34 35 48 44 49 59 9 10 15 23 40 59 78 85
4 6 9 10 12 16 19 14 16 13 8 7 7 5 4 10 7 10 14 10 8 6 6 17 17 22 24 28 30 30 31 39 51 34 29 26 33 41 49 58 65 73 89 97
5 13 19 17 15 17 10 13 13 13 13 10 7 8 13 7 9 19 9 19 9 17 20 18 17 23 27 28 28 30 38 31 18 34 44 42 44 54 67 72 78 82 83 93
Wind_Direction_500mb
233 235 245 261 268 178 196 258 233 183 170 211 220 240 274 34 270 226 259 277 283 286 287 279 256 273 99 314 274 266 64 288 256 263 253 237 252 280 235 233 244 238 260 278
233 228 238 249 251 178 176 242 258 214 180 236 223 228 261 259 261 247 239 252 251 268 265 267 250 233 109 295 289 359 12 230 258 250 249 235 239 256 251 259 273 267 279 284
228 222 230 236 249 187 177 256 214 179 212 256 288 280 222 233 223 259 239 273 275 255 255 249 277 235 158 260 312 350 307 262 261 275 311 332 302 235 261 255 256 261 256 265
220 218 224 221 225 189 185 220 243 351 190 225 231 255 273 240 227 223 217 233 243 248 252 258 247 245 261 203 172 254 265 262 256 261 273 281 278 273 277 269 263 261 281 295
216 217 219 217 208 191 200 261 249 207 276 266 250 205 237 246 252 222 220 245 272 243 248 255 274 323 258 278 249 227 250 271 269 268 270 273 272 270 268 269 270 273 274 273
211 213 216 216 201 183 211 229 271 274 189 211 238 234 229 252 258 217 264 267 259 230 285 298 342 318 306 294 291 279 279 273 265 259 261 267 262 257 260 264 269 269 267 272
211 211 212 214 207 193 211 241 240 238 249 225 230 237 268 239 241 267 206 251 261 29 348 280 271 265 261 258 253 245 252 257 262 268 274 255 272 266 267 270 280 269 281 286
211 210 213 213 214 203 194 238 211 243 259 264 225 236 238 242 235 251 264 225 43 337 258 268 250 246 243 245 242 236 230 243 263 258 250 258 267 290 287 280 278 334 333 319
207 208 210 213 215 207 192 221 215 232 265 257 245 236 232 235 221 224 237 225 294 283 267 236 246 249 273 230 180 231 225 223 246 254 263 265 280 272 12 323 233 44 355 347
202 204 205 208 206 195 173 223 221 215 247 252 205 233 257 232 262 254 203 191 236 231 245 248 246 248 262 262 261 194 216 222 228 236 251 272 285 330 336 270 66 9 349 346
199 199 199 201 200 188 172 212 218 205 245 236 243 235 236 244 249 243 133 189 214 215 235 255 246 251 247 253 249 267 227 212 232 233 253 260 267 267 273 35 332 325 319 333
193 193 194 197 192 178 173 197 213 205 225 339 222 226 233 236 273 267 169 259 299 228 246 234 256 254 245 255 258 229 249 262 264 262 240 200 3 317 260 322 311 310 314 310
187 185 192 190 181 173 160 173 179 190 241 260 237 239 248 231 225 219 269 219 242 255 291 299 273 264 292 268 257 251 270 250 258 274 268 276 284 271 276 290 312 308 303 304
178 183 187 185 179 169 164 163 182 200 244 271 155 210 237 228 224 227 231 253 284 252 263 250 262 263 269 272 283 289 287 304 291 280 278 283 278 279 282 287 298 302 303 305
172 177 176 176 176 169 158 179 195 211 281 302 45 223 220 213 210 224 225 231 240 254 249 241 250 265 273 270 272 261 261 268 267 269 282 287 290 298 298 303 294 294 294 297
166 168 166 166 162 155 156 186 212 202 196 248 243 128 213 213 214 220 217 223 233 240 252 264 274 265 286 263 261 263 261 259 264 269 278 283 285 282 281 282 283 284 283 282
164 164 162 162 157 157 198 180 147 181 166 218 254 197 175 191 217 208 216 219 240 249 254 254 254 258 249 259 264 271 271 270 276 274 278 279 277 280 280 279 279 280 277 275
160 157 153 151 158 163 184 190 181 162 175 211 262 199 153 169 189 186 185 201 210 229 242 246 245 251 245 254 257 264 267 269 270 268 267 267 274 277 276 276 275 275 275 272
149 143 139 138 158 172 168 180 150 169 155 237 269 262 105 154 135 158 226 192 223 233 217 241 245 231 234 248 256 265 266 266 280 284 283 282 280 280 279 275 274 272 271 270
139 132 135 149 159 149 131 130 150 198 215 220 245 246 219 178 162 175 191 225 234 259 238 237 225 246 256 259 260 266 274 276 277 276 283 288 290 288 286 287 279 276 276 271
141 148 103 131 146 147 157 151 207 191 217 214 219 229 243 178 203 192 208 186 276 265 277 246 235 251 250 266 240 275 284 288 290 291 296 294 291 290 282 282 275 282 278 267
158 134 125 133 131 154 199 185 205 206 248 157 204 175 216 234 188 239 212 240 186 256 345 253 257 282 6 340 321 302 299 284 287 298 297 295 293 284 281 282 286 288 281 276
129 133 138 145 159 169 208 186 199 202 193 179 168 172 172 197 226 228 213 234 239 296 228 242 261 153 326 333 322 315 305 307 311 307 309 308 306 284 278 277 280 287 283 249
145 128 150 211 173 226 199 224 185 134 186 181 195 180 175 219 203 211 251 228 222 232 238 257 15 344 317 315 317 319 317 316 317 319 318 323 315 300 276 265 262 232 148 152
159 171 208 200 223 209 240 148 142 133 175 183 181 198 220 209 238 247 261 230 236 235 273 347 356 327 327 335 325 322 318 323 323 319 325 331 287 188 133 136 135 125 126 128
177 223 247 244 261 207 187 199 225 193 197 190 211 176 220 225 227 216 229 253 257 19 3 353 350 348 346 332 327 323 323 317 323 328 310 81 101 106 110 112 114 112 116 116
230 222 226 267 206 216 244 247 196 186 184 196 186 213 220 280 244 228 236 259 357 339 352 354 345 342 341 333 328 328 332 343 8 12 111 100 98 103 106 99 101 106 113 118
Wind_Speed_850mb
28 25 22 18 10 6 2 5 11 5 15 16 26 22 14 7 12 10 13 12 22 16 11 20 18 9 3 6 15 17 7 10 24 34 29 29 28 31 22 21 22 23 27 28
27 23 18 13 7 14 5 10 6 5 13 12 19 18 11 10 13 15 7 12 13 13 22 13 25 11 15 7 8 8 10 14 19 32 31 32 24 30 26 28 26 33 26 25
33 25 19 12 8 12 16 9 9 13 21 29 18 18 19 23 13 22 14 16 10 17 21 22 15 13 11 8 5 7 8 18 24 26 32 19 21 24 31 22 23 27 30 36
34 28 23 15 11 14 18 12 7 9 10 22 24 22 12 22 23 19 14 15 25 23 21 25 29 27 22 21 12 19 8 27 32 39 44 37 36 34 34 31 29 30 32 40
38 33 27 19 14 16 14 9 10 6 20 9 13 16 22 27 20 19 19 22 17 18 25 25 20 20 20 18 20 11 12 21 29 42 41 40 50 47 43 44 42 45 43 42
39 36 32 23 17 23 12 13 11 10 6 16 19 20 26 20 24 14 23 10 20 18 11 9 14 14 23 25 15 17 22 21 24 40 40 43 54 43 49 48 47 47 42 43
47 40 36 29 23 26 13 12 11 16 17 17 18 14 16 21 22 25 18 16 23 5 3 8 22 29 34 37 36 35 27 24 23 30 32 48 29 34 38 43 39 31 35 32
52 45 39 32 28 28 21 15 14 17 17 28 21 15 18 21 13 21 23 15 4 5 6 13 21 23 31 39 41 39 39 28 22 27 30 41 42 34 26 25 25 16 21 18
58 50 42 33 28 26 28 17 18 13 16 15 20 16 28 19 18 19 17 1 4 8 18 18 24 17 17 11 11 14 35 33 26 28 33 36 28 22 24 35 35 12 16 15
60 52 44 36 30 27 28 14 27 15 24 16 7 12 14 23 24 15 16 21 14 17 17 20 23 25 25 25 32 13 21 25 32 27 28 25 20 28 23 20 8 16 19 19
64 54 46 37 29 29 31 15 17 17 20 12 9 13 16 7 16 15 14 6 19 17 18 18 17 21 24 28 36 32 22 19 23 26 34 43 27 21 20 14 13 20 27 19
68 57 47 38 32 32 36 11 12 18 13 8 7 17 21 19 11 18 17 10 8 11 9 12 11 21 15 26 29 29 35 33 23 25 19 6 1 15 3 13 24 35 25 27
69 57 47 39 34 38 29 10 16 12 18 27 30 25 23 28 27 18 13 26 14 9 8 11 9 13 17 22 27 32 40 30 29 30 31 43 44 34 33 30 35 37 35 40
69 54 46 39 38 38 31 12 13 17 7 12 11 11 18 20 28 32 32 19 6 12 15 25 16 19 23 23 31 32 32 33 28 36 36 48 58 55 55 42 32 44 53 54
64 52 44 40 39 38 27 13 15 15 7 8 2 5 13 15 15 25 31 29 28 26 27 23 21 38 30 40 32 29 39 37 30 33 50 52 55 51 54 56 53 56 59 64
61 53 47 42 42 40 23 10 14 16 14 6 5 8 11 14 18 25 20 25 29 33 33 23 25 42 34 17 27 42 48 56 62 63 58 59 60 61 60 63 64 62 63 62
62 53 45 39 39 31 16 3 14 23 16 4 7 11 17 8 11 17 22 24 17 24 31 40 42 44 42 28 38 57 66 61 57 56 58 68 67 66 60 61 64 64 65 63
58 48 42 41 42 21 15 5 13 26 9 8 6 4 16 15 10 11 15 16 15 15 26 24 37 47 47 26 47 57 63 61 61 62 59 63 64 65 63 64 65 64 64 61
58 52 49 44 20 15 11 10 24 13 6 3 6 9 6 20 9 4 11 13 10 21 24 33 27 22 18 26 43 48 47 47 51 55 57 61 66 70 71 71 72 71 70 65
63 58 20 14 17 21 22 11 8 10 11 12 15 19 8 20 16 12 4 12 11 16 22 33 26 31 69 73 73 72 68 64 59 60 57 59 60 60 58 56 55 55 65 68
48 17 9 26 28 20 8 8 11 14 9 17 19 25 14 16 13 7 19 6 7 8 3 7 9 23 30 31 39 34 36 42 50 49 54 57 66 68 65 64 64 68 66 61
26 23 36 31 9 5 7 9 8 10 9 21 20 16 23 14 9 14 10 7 8 12 11 7 10 7 10 17 23 29 33 36 38 44 54 62 70 70 68 68 70 69 62 65
45 18 13 12 8 7 12 16 10 9 13 13 19 20 16 10 18 15 8 8 12 7 7 9 20 2 9 16 23 28 33 33 40 47 54 61 78 64 61 57 59 50 69 47
10 10 9 11 10 11 11 13 9 10 12 16 16 17 11 14 13 12 9 10 7 7 10 25 11 14 17 23 28 34 37 34 42 51 59 61 38 29 27 29 31 29 51 66
7 7 7 14 18 12 9 4 4 10 10 11 10 9 10 11 8 7 8 7 11 12 14 8 10 21 25 25 30 35 34 35 48 44 49 59 9 10 15 23 40 59 78 85
4 6 9 10 12 16 19 14 16 13 8 7 7 5 4 10 7 10 14 10 8 6 6 17 17 22 24 28 30 30 31 39 51 34 29 26 33 41 49 58 65 73 89 97
5 13 19 17 15 17 10 13 13 13 13 10 7 8 13 7 9 19 9 19 9 17 20 18 17 23 27 28 28 30 38 31 18 34 44 42 44 54 67 72 78 82 83 93
Wind_Direction_850mb
233 235 245 261 268 178 196 258 233 183 170 211 220 240 274 34 270 226 259 277 283 286 287 279 256 273 99 314 274 266 64 288 256 263 253 237 252 280 235 233 244 238 260 278
233 228 238 249 251 178 176 242 258 214 180 236 223 228 261 259 261 247 239 252 251 268 265 267 250 233 109 295 289 359 12 230 258 250 249 235 239 256 251 259 273 267 279 284
228 222 230 236 249 187 177 256 214 179 212 256 288 280 222 233 223 259 239 273 275 255 255 249 277 235 158 260 312 350 307 262 261 275 311 332 302 235 261 255 256 261 256 265
220 218 224 221 225 189 185 220 243 351 190 225 231 255 273 240 227 223 217 233 243 248 252 258 247 245 261 203 172 254 265 262 256 261 273 281 278 273 277 269 263 261 281 295
216 217 219 217 208 191 200 261 249 207 276 266 250 205 237 246 252 222 220 245 272 243 248 255 274 323 258 278 249 227 250 271 269 268 270 273 272 270 268 269 270 273 274 273
211 213 216 216 201 183 211 229 271 274 189 211 238 234 229 252 258 217 264 267 259 230 285 298 342 318 306 294 291 279 279 273 265 259 261 267 262 257 260 264 269 269 267 272
211 211 212 214 207 193 211 241 240 238 249 225 230 237 268 239 241 267 206 251 261 29 348 280 271 265 261 258 253 245 252 257 262 268 274 255 272 266 267 270 280 269 281 286
211 210 213 213 214 203 194 238 211 243 259 264 225 236 238 242 235 251 264 225 43 337 258 268 250 246 243 245 242 236 230 243 263 258 250 258 267 290 287 280 278 334 333 319
207 208 210 213 215 207 192 221 215 232 265 257 245 236 232 235 221 224 237 225 294 283 267 236 246 249 273 230 180 231 225 223 246 254 263 265 280 272 12 323 233 44 355 347
202 204 205 208 206 195 173 223 221 215 247 252 205 233 257 232 262 254 203 191 236 231 245 248 246 248 262 262 261 194 216 222 228 236 251 272 285 330 336 270 66 9 349 346
199 199 199 201 200 188 172 212 218 205 245 236 243 235 236 244 249 243 133 189 214 215 235 255 246 251 247 253 249 267 227 212 232 233 253 260 267 267 273 35 332 325 319 333
193 193 194 197 192 178 173 197 213 205 225 339 222 226 233 236 273 267 169 259 299 228 246 234 256 254 245 255 258 229 249 262 264 262 240 200 3 317 260 322 311 310 314 310
187 185 192 190 181 173 160 173 179 190 241 260 237 239 248 231 225 219 269 219 242 255 291 299 273 264 292 268 257 251 270 250 258 274 268 276 284 271 276 290 312 308 303 304
178 183 187 185 179 169 164 163 182 200 244 271 155 210 237 228 224 227 231 253 284 252 263 250 262 263 269 272 283 289 287 304 291 280 278 283 278 279 282 287 298 302 303 305
172 177 176 176 176 169 158 179 195 211 281 302 45 223 220 213 210 224 225 231 240 254 249 241 250 265 273 270 272 261 261 268 267 269 282 287 290 298 298 303 294 294 294 297
166 168 166 166 162 155 156 186 212 202 196 248 243 128 213 213 214 220 217 223 233 240 252 264 274 265 286 263 261 263 261 259 264 269 278 283 285 282 281 282 283 284 283 282
164 164 162 162 157 157 198 180 147 181 166 218 254 197 175 191 217 208 216 219 240 249 254 254 254 258 249 259 264 271 271 270 276 274 278 279 277 280 280 279 279 280 277 275
160 157 153 151 158 163 184 190 181 162 175 211 262 199 153 169 189 186 185 201 210 229 242 246 245 251 245 254 257 264 267 269 270 268 267 267 274 277 276 276 275 275 275 272
149 143 139 138 158 172 168 180 150 169 155 237 269 262 105 154 135 158 226 192 223 233 217 241 245 231 234 248 256 265 266 266 280 284 283 282 280 280 279 275 274 272 271 270
139 132 135 149 159 149 131 130 150 198 215 220 245 246 219 178 162 175 191 225 234 259 238 237 225 246 256 259 260 266 274 276 277 276 283 288 290 288 286 287 279 276 276 271
141 148 103 131 146 147 157 151 207 191 217 214 219 229 243 178 203 192 208 186 276 265 277 246 235 251 250 266 240 275 284 288 290 291 296 294 291 290 282 282 275 282 278 267
158 134 125 133 131 154 199 185 205 206 248 157 204 175 216 234 188 239 212 240 186 256 345 253 257 282 6 340 321 302 299 284 287 298 297 295 293 284 281 282 286 288 281 276
129 133 138 145 159 169 208 186 199 202 193 179 168 172 172 197 226 228 213 234 239 296 228 242 261 153 326 333 322 315 305 307 311 307 309 308 306 284 278 277 280 287 283 249
145 128 150 211 173 226 199 224 185 134 186 181 195 180 175 219 203 211 251 228 222 232 238 257 15 344 317 315 317 319 317 316 317 319 318 323 315 300 276 265 262 232 148 152
159 171 208 200 223 209 240 148 142 133 175 183 181 198 220 209 238 247 261 230 236 235 273 347 356 327 327 335 325 322 318 323 323 319 325 331 287 188 133 136 135 125 126 128
177 223 247 244 261 207 187 199 225 193 197 190 211 176 220 225 227 216 229 253 257 19 3 353 350 348 346 332 327 323 323 317 323 328 310 81 101 106 110 112 114 112 116 116
230 222 226 267 206 216 244 247 196 186 184 196 186 213 220 280 244 228 236 259 357 339 352 354 345 342 341 333 328 328 332 343 8 12 111 100 98 103 106 99 101 106 113 118